Clarksburg, WV

5:43 AM EST on December 15, 2019 (GMT -0500)
Benedum

Weather History for KCKB - October, 2019

Change the Weather History Date:

Sunday, October 20, 2019

  Actual Average Record
Temperature  
Mean Temperature 61 °F -  
Max Temperature 72 °F 62 °F 83 °F (2016)
Min Temperature 50 °F 36 °F 18 °F (1930)
Degree Days  
Heating Degree Days 4    
Month to date heating degree days 107  
Growing Degree Days 12 (Base 50)    
Moisture  
Dew Point 51 °F    
Average Humidity 70    
Maximum Humidity 89    
Minimum Humidity 51    
Precipitation  
Precipitation 0.12 in - - ()
Month to date precipitation 1.61  
Year to date precipitation 33.68  
Sea Level Pressure  
Sea Level Pressure 29.89 in    
Wind  
Wind Speed 1 mph (SE)    
Max Wind Speed 9 mph    
Max Gust Speed 12 mph    
Visibility 9 miles    
Events Rain    
Averages and records for this station are not official NWS values.
T = Trace of Precipitation, MM = Missing Value Source: NWS Daily Summary

Daily Weather History Graph

Daily Weather History Graph

Search for Another Location

Airport or City:

Astronomy

Oct. 20, 2019 Rise Set
Actual Time 7:35 AM EDT 6:35 PM EDT
Civil Twilight 7:08 AM EDT 7:02 PM EDT
Nautical Twilight 6:37 AM EDT 7:33 PM EDT
Astronomical Twilight 6:06 AM EDT 8:04 PM EDT
Moon 11:43 PM EDT (10/20) 2:00 PM EDT (10/20)
Length of Visible Light 11h 53m
Length of Day
10h 59m
Waning Gibbous, 59% of the Moon is Illuminated
Oct 20
Waning Gibbous
Oct 21
Last Quarter
Oct 27
New
Nov 4
First Quarter
Nov 12
Full

Hourly Weather History & Observations

Time (EDT) Temp. Dew Point Humidity Pressure Visibility Wind Dir Wind Speed Gust Speed Precip Events Conditions
12:53 AM 54.0 °F 46.9 °F 77% 29.88 in 10.0 mi Calm Calm - N/A   Overcast
1:53 AM 53.1 °F 46.9 °F 80% 29.86 in 10.0 mi Calm Calm - 0.00 in Rain Light Rain
2:53 AM 54.0 °F 48.0 °F 80% 29.86 in 10.0 mi SSE 3.5 mph - 0.01 in Rain Light Rain
3:53 AM 54.0 °F 48.0 °F 80% 29.83 in 10.0 mi SE 4.6 mph - 0.04 in Rain Light Rain
4:53 AM 54.0 °F 50.0 °F 86% 29.85 in 10.0 mi Calm Calm - 0.01 in Rain Light Rain
5:53 AM 54.0 °F 50.0 °F 86% 29.86 in 9.0 mi Calm Calm - 0.03 in Rain Light Rain
6:53 AM 54.0 °F 50.0 °F 86% 29.85 in 10.0 mi ENE 3.5 mph - 0.03 in Rain Light Rain
7:53 AM 55.0 °F 51.1 °F 86% 29.86 in 10.0 mi Calm Calm - 0.00 in   Overcast
8:53 AM 55.0 °F 51.1 °F 86% 29.87 in 10.0 mi NNE 3.5 mph - N/A   Overcast
9:53 AM 57.0 °F 51.1 °F 81% 29.89 in 10.0 mi Calm Calm - N/A   Overcast
11:53 AM 62.1 °F 54.0 °F 75% 29.89 in 10.0 mi Calm Calm - N/A   Overcast
12:53 PM 64.0 °F 54.0 °F 70% 29.88 in 10.0 mi South 3.5 mph - N/A   Overcast
1:53 PM 66.9 °F 54.0 °F 63% 29.87 in 10.0 mi West 4.6 mph - 0.00 in   Mostly Cloudy
2:53 PM 68.0 °F 54.0 °F 61% 29.86 in 10.0 mi Variable 3.5 mph - N/A   Mostly Cloudy
3:53 PM 69.1 °F 54.0 °F 58% 29.87 in 10.0 mi Calm Calm - N/A   Clear
4:53 PM 70.0 °F 52.0 °F 53% 29.88 in 10.0 mi Calm Calm - N/A   Partly Cloudy
5:53 PM 70.0 °F 50.0 °F 49% 29.89 in 10.0 mi Variable 3.5 mph - N/A   Clear
6:53 PM 64.0 °F 52.0 °F 65% 29.91 in 10.0 mi Calm Calm - N/A   Clear
7:53 PM 60.1 °F 52.0 °F 75% 29.93 in 10.0 mi Calm Calm - N/A   Clear
8:53 PM 57.0 °F 52.0 °F 83% 29.94 in 10.0 mi Calm Calm - N/A   Clear
9:53 PM 55.0 °F 50.0 °F 83% 29.97 in 10.0 mi Calm Calm - N/A   Scattered Clouds
10:53 PM 55.0 °F 51.1 °F 86% 29.98 in 7.0 mi Calm Calm - N/A   Clear
11:48 PM 51.8 °F 48.2 °F 88% 30.01 in 1.2 mi Calm Calm - N/A   Partly Cloudy